DELTA 1 DEB, 7027

Orbit data source: Space-Track

DELTA 1 DEB, 7027 is space debris in SSO originally from a launch on Tue, 06 Nov 1973 UTC launched from the Air Force Western Test Range (AFWTR). Debris objects in space refer to the collection of defunct objects orbiting the Earth. Examples of debris include non-operational satellites, rocket bodies, and fragments generated from explosions, collisions, or faulty payload assembly.

Loading next visibility...
Identifier
7027, 1973-086T
Orbit
SSO
Country
Flag of USUS
Related business
Manufacturer
Unknown
Mission
Spacecraft
Bus & Motor
Unknown
Mass
Unknown
Launch date (UTC)
1973-11-06 (52 years ago)
Launch vehicle
Unknown
Launch site
Air Force Western Test Range (AFWTR)
Object type
Payload
Rocket body
Debris
Shape & HBR
Unknown shape, 0.2 m
Radar Cross Section
Small (<0.1 m²)

Expand to show TLE details & history
Last TLE update: 7 hours ago

TLE from 7 hours ago
0 DELTA 1 DEB
1  7027U 73086T   25297.65922083 -.00000073  00000-0 -23662-3 0  9994
2  7027 101.9123 191.6001 0053827 113.1881 276.0584 12.35196509334969
Epoch: 2025-10-24T15:49Z
TLE epoch observation values (Epoch: 2025-10-24T15:49:16.679Z)
Latitude
28.00229°
Longitude
-85.42973°
Altitude
1,525.896 km
Speed
7.107 km/s
True Right ascension
12h 20m 45s
True Declination
27° 52' 26"
Sunlit
Object was in daylight at epoch
Visualization orbit readout
Latitude
Unknown
Longitude
Unknown
Altitude
Unknown
Speed
Unknown
Apparent Right ascension
Unknown
Apparent Declination
Unknown
Sunlit
N/A
Visualization observer readout
Local Sidereal Time
17:43:29
Azimuth
Unknown
Elevation
Unknown
Doppler factor
Unknown
Orbital elements
Apogee altitude
1,567.145 km
Perigee altitude
1,482.069 km
Semi-major axis
7,902.744 km
Eccentricity
0.00538
Inclination
101.9123°
RAAN
191.6001°
Arg. of periapsis
113.1881°
True anomaly
275.44461°
Mean anomaly
276.0584°
Eccentric anomaly
275.75155°
Mean motion
3.08942 °/min
Orbital period
116.53 mins
BSTAR
-0.00023662
Loading maneuver chart data...
Computing Atmospheric mass density...
Loading historical data...
Loading historical data...
Loading historical data...
Loading historical data...
Loading historical data...
Loading historical data...
Loading historical data...

Documentation

Showing up to 5 results
|